Temperature
16 16 15 15 14 14 14 14 14 14 14 14 13 13 13 13 13 13 13 13 13 13 13 13 13 13 13 13 13 13 13 13 14 14 14 14 14 14 14 14 15 15 15
16 16 15 15 15 14 14 14 14 14 14 14 13 13 13 13 13 13 13 13 13 13 13 13 13 13 13 13 13 13 13 13 14 14 14 14 14 14 14 14 14 14 15
17 16 16 15 15 15 14 14 14 14 14 14 14 14 13 13 13 13 13 13 13 13 13 13 13 13 13 13 13 13 13 13 13 14 14 14 14 14 14 14 14 14 14
17 16 16 15 15 15 14 14 14 14 14 14 14 13 13 13 13 13 13 13 13 13 13 13 13 13 13 13 13 13 13 13 13 13 13 13 13 14 14 14 14 14 14
17 17 16 16 15 15 15 14 14 14 14 14 14 14 14 13 13 13 13 13 13 13 13 13 13 13 13 13 13 13 13 13 13 13 13 13 13 13 13 13 13 14 14
17 17 16 16 15 15 15 15 14 14 14 14 14 14 14 14 13 13 13 13 13 13 13 13 13 13 13 13 13 13 13 13 13 13 13 13 13 13 13 13 13 13 13
18 17 17 16 16 15 15 15 14 14 14 14 14 14 14 13 13 13 13 13 13 13 13 13 13 13 13 13 13 13 13 13 13 13 13 13 13 13 13 13 13 13 13
18 17 17 16 16 16 15 15 14 14 14 14 14 14 13 13 13 13 13 13 13 13 13 13 13 13 13 13 13 13 13 13 13 13 13 13 13 13 13 13 13 12 13
18 18 17 17 16 16 15 15 15 14 14 14 14 14 14 14 14 13 13 13 13 13 13 13 13 13 13 13 13 13 13 13 13 13 13 13 13 13 12 12 12 12 12
18 18 18 17 17 16 16 15 15 15 14 14 14 14 14 14 14 13 13 13 13 13 13 13 13 13 13 13 13 13 13 13 12 12 12 12 12 12 12 12 12 12 12
18 18 18 17 17 16 16 16 15 15 14 14 14 14 14 14 14 13 13 13 13 13 13 13 13 13 13 12 12 12 12 12 12 12 12 12 12 12 12 12 12 12 12
18 18 17 17 17 16 16 16 15 15 14 14 14 14 14 14 13 13 13 13 13 13 13 13 12 12 12 12 12 12 12 12 12 12 12 12 12 12 12 11 11 11 11
18 18 17 17 17 16 16 16 15 15 14 14 14 14 14 14 13 13 13 13 13 13 12 12 12 12 12 12 12 12 12 12 12 11 11 11 11 11 11 11 11 11 11
17 17 17 17 17 16 16 16 15 15 15 14 14 14 14 14 14 13 13 13 12 12 12 12 12 12 11 11 11 11 11 11 11 11 11 11 11 10 10 10 11 11 11
17 17 17 17 16 16 16 16 15 15 15 15 15 14 14 14 14 13 13 13 12 12 12 12 11 11 11 11 11 11 11 10 10 10 10 10 10 10 10 10 10 10 10
16 16 16 16 16 16 16 15 15 15 15 14 14 14 14 14 13 13 13 12 12 12 12 11 11 11 11 11 10 10 10 10 10 10 10 10 9 9 9 9 9 9 9
16 16 16 15 15 15 15 15 15 15 14 14 14 14 13 13 13 13 12 12 12 11 11 11 11 11 10 10 10 9 9 9 9 9 9 9 9 9 8 8 8 8 8
15 15 15 15 15 15 15 15 14 14 14 14 14 13 13 13 12 12 12 12 11 11 11 11 10 10 10 9 9 9 9 9 8 8 8 8 8 8 8 8 7 7 7
14 14 14 14 14 14 14 14 14 14 14 13 13 13 12 12 12 12 11 11 11 11 10 10 10 9 9 9 9 8 8 8 8 8 7 7 7 7 7 7 7 7 6
14 14 14 14 14 14 14 14 14 13 13 13 13 12 12 11 11 11 11 11 10 10 10 10 9 9 9 8 8 8 8 7 7 7 7 7 6 6 6 6 6 6 6
13 13 13 13 13 13 13 13 13 13 13 13 12 12 12 11 11 11 11 10 10 10 9 9 9 8 8 8 7 7 7 7 7 6 6 6 6 6 6 5 5 5 5
12 12 13 13 12 12 12 12 12 13 12 12 12 11 11 11 11 10 10 10 9 9 9 8 8 8 7 7 7 7 7 6 6 6 6 5 5 5 5 5 5 4 4
12 12 12 12 12 12 12 12 12 12 12 12 11 11 11 10 10 10 10 9 9 9 8 8 7 7 7 7 6 6 6 6 6 6 5 5 5 5 5 4 4 4 3
11 11 11 11 11 11 11 11 11 11 11 11 11 10 10 10 10 9 9 9 8 8 8 7 7 7 6 6 6 6 6 5 5 5 5 4 4 4 4 4 3 3 3
10 10 10 10 11 11 11 11 10 10 10 10 10 10 10 9 9 9 8 8 8 7 7 7 6 6 6 6 6 5 5 5 5 4 4 4 4 4 3 3 3 2 2
9 9 9 9 10 10 10 10 10 10 10 10 9 9 9 9 9 8 8 7 7 7 7 6 6 6 6 5 5 5 4 4 4 4 4 3 3 3 3 2 2 1 1
Wind_Speed
7 6 5 5 4 4 3 3 3 2 2 2 1 1 1 1 1 1 1 1 1 1 1 2 2 1 1 1 2 2 2 3 2 2 1 1 0 1 1 1 2 3 5
7 6 6 5 4 4 3 3 2 2 2 2 1 1 1 1 0 1 1 1 1 1 1 1 1 1 1 1 2 2 2 2 3 2 1 1 1 2 2 1 1 2 4
8 7 6 5 5 5 4 3 2 2 1 1 1 1 1 1 1 1 1 1 2 2 2 2 2 2 2 1 2 2 2 2 2 2 2 1 1 0 0 0 0 1 3
8 8 7 7 7 6 5 4 3 2 2 1 1 2 1 1 1 0 1 1 1 1 1 2 2 3 3 3 2 2 2 2 2 1 1 1 1 0 1 1 0 1 1
9 9 8 7 7 6 5 4 3 2 2 2 2 1 1 1 1 1 1 1 1 0 0 1 1 2 3 4 3 3 3 2 2 1 1 0 1 0 1 1 1 1 1
10 10 9 7 7 6 6 5 4 3 2 2 2 2 1 1 2 2 2 2 1 1 1 1 1 1 1 3 3 5 5 4 3 2 2 2 2 2 1 1 1 1 1
11 10 9 9 8 7 7 6 5 4 3 3 2 2 2 2 2 3 3 3 1 1 1 1 1 1 0 1 1 1 2 4 5 4 4 3 3 3 3 2 2 2 2
10 10 10 9 9 8 7 7 6 4 4 4 4 4 3 3 3 2 3 3 1 1 2 2 2 2 1 2 2 1 1 1 2 2 3 4 3 3 4 3 3 2 1
10 11 11 11 10 9 8 8 6 5 4 4 4 4 4 3 3 2 4 2 1 0 1 1 2 1 2 3 3 2 0 1 1 1 1 1 1 1 2 3 2 2 1
11 11 11 11 11 11 10 8 6 5 6 5 4 4 4 4 3 3 5 3 2 0 1 1 1 1 1 3 4 3 2 1 0 1 2 3 2 2 2 2 3 2 1
9 8 9 11 11 11 9 7 6 6 5 5 4 4 4 4 4 4 5 3 3 2 1 1 1 0 2 3 4 3 3 2 2 2 2 2 2 2 2 1 1 2 2
6 7 9 10 10 9 9 8 7 7 6 5 4 3 3 3 4 4 5 6 5 4 2 2 1 1 3 4 3 3 4 4 3 3 2 2 1 1 1 2 1 1 1
6 7 8 8 8 8 9 9 7 7 6 6 5 5 4 3 3 4 5 6 6 4 2 3 2 3 4 4 5 5 4 3 3 3 2 0 0 1 1 2 2 3 3
7 7 7 8 7 7 6 7 7 8 8 7 7 6 5 3 3 3 2 3 4 4 2 3 5 6 5 5 4 4 3 3 3 2 1 1 1 2 2 2 2 2 2
7 6 6 7 8 7 6 5 7 8 9 9 8 8 7 7 7 8 6 5 5 5 4 3 3 3 3 3 3 3 3 3 3 2 2 2 2 3 2 2 2 2 2
6 6 5 5 6 6 6 3 1 4 7 11 11 10 7 8 10 10 10 9 9 9 6 4 3 3 3 3 3 2 2 2 2 3 3 3 3 3 3 3 3 3 3
7 7 5 6 6 7 7 8 5 1 0 4 9 11 10 11 11 11 11 9 9 10 5 4 4 4 3 3 3 3 2 2 2 3 3 3 3 3 3 3 3 3 2
7 8 7 7 7 8 9 9 8 8 5 3 4 8 11 11 12 12 11 8 5 5 4 5 5 4 4 4 4 3 3 3 3 3 3 3 3 3 3 3 2 2 2
6 6 6 6 7 7 7 8 8 8 7 5 3 4 8 9 9 10 10 5 6 5 5 5 5 5 4 4 4 4 4 3 3 3 3 3 2 3 3 2 2 2 2
6 9 8 7 6 6 7 8 8 9 8 8 8 6 6 5 5 6 5 5 6 6 6 6 5 5 5 5 5 5 4 4 4 3 3 2 2 2 2 2 1 1 1
5 7 8 7 7 7 7 8 9 9 10 9 8 9 12 8 8 8 7 7 7 7 7 6 6 6 5 5 5 6 6 4 4 3 3 2 2 2 1 1 1 1 0
5 5 6 6 7 7 8 8 8 9 10 10 7 8 14 8 7 7 7 7 6 6 6 7 6 5 6 6 7 6 6 5 4 4 3 3 2 2 2 1 1 0 0
5 6 6 5 6 8 8 7 8 9 9 9 9 9 9 8 7 7 8 7 7 6 6 6 7 5 5 5 6 7 7 6 5 5 4 3 2 2 1 1 1 0 1
5 6 6 6 5 6 7 8 8 9 9 9 9 9 9 9 9 9 8 7 7 7 7 6 7 9 9 7 7 7 8 8 8 6 5 4 3 2 1 1 1 1 1
5 6 6 6 6 6 6 7 8 8 9 9 9 9 9 9 8 8 8 8 9 8 9 8 7 9 11 11 9 9 11 12 10 8 6 4 3 2 2 1 1 1 2
5 5 5 5 5 6 6 7 7 8 8 8 9 9 10 10 9 9 9 9 8 8 8 7 9 11 12 11 12 13 13 12 10 8 6 4 3 2 2 1 2 2 2
Wind_Direction
189 191 187 201 208 207 215 235 243 248 253 234 226 217 245 275 253 178 188 151 143 179 203 183 212 205 193 193 171 159 168 160 185 261 262 260 185 197 237 243 211 219 228
188 187 194 199 199 204 222 240 232 228 239 228 191 167 193 213 190 172 207 178 174 198 229 181 200 177 178 185 168 175 182 177 173 214 256 271 237 213 204 216 216 226 232
184 183 189 195 198 205 216 225 215 204 223 204 151 172 202 210 203 203 195 203 205 210 210 190 193 160 171 189 181 182 193 181 168 183 225 256 264 216 125 294 220 263 247
185 185 192 199 202 206 206 206 204 192 191 201 196 203 209 212 203 174 147 168 191 219 213 201 197 185 193 190 183 185 175 156 155 165 194 235 251 285 122 145 323 323 282
186 192 201 202 200 198 195 199 199 188 190 187 168 175 189 187 204 175 150 150 159 148 279 241 228 207 198 191 182 182 164 157 155 157 181 197 272 195 186 187 203 309 307
190 199 199 191 192 195 195 193 186 184 180 166 172 188 204 241 224 169 144 134 153 170 245 285 284 271 215 196 186 179 173 169 175 174 186 204 233 225 194 172 153 107 292
196 199 196 190 191 197 194 184 190 194 186 189 206 205 223 258 233 181 164 148 157 207 225 248 277 281 206 163 184 157 193 201 188 175 188 210 208 210 183 182 190 190 224
198 200 198 192 194 193 188 192 197 193 193 203 215 217 224 259 253 206 166 142 146 225 224 212 218 266 242 188 168 145 250 273 233 194 194 216 221 214 197 192 188 181 254
202 204 201 194 192 189 193 199 197 190 197 206 213 211 216 255 259 198 153 128 136 306 286 218 196 230 249 177 151 152 102 323 308 160 167 205 236 216 166 140 146 148 250
209 208 201 194 192 195 199 199 194 191 201 205 214 212 207 224 243 192 161 144 154 232 335 330 239 204 217 157 149 153 165 250 80 68 50 39 49 59 86 142 167 166 181
211 204 198 196 196 197 196 194 189 190 194 202 211 219 214 220 229 204 178 166 179 182 192 280 301 230 113 140 152 161 184 171 135 112 82 48 41 46 35 45 140 162 172
195 197 200 199 199 196 189 192 188 185 189 199 205 219 231 229 221 216 196 185 174 166 185 203 214 112 102 103 119 130 123 110 102 95 86 64 45 23 1 8 30 79 163
193 201 202 198 199 189 188 190 188 187 192 200 198 207 220 224 226 213 199 185 169 160 173 174 149 114 97 84 84 96 96 97 102 100 100 68 332 342 12 14 20 34 38
200 207 201 192 195 193 191 191 190 193 196 198 199 204 207 207 214 209 196 182 168 156 142 121 107 95 86 80 71 66 73 100 116 118 114 55 41 48 37 28 32 23 39
209 207 205 199 194 192 192 196 198 203 203 200 203 198 193 206 216 200 183 182 178 172 142 108 97 95 92 77 68 63 61 72 85 85 93 79 62 58 39 28 44 52 55
216 213 208 205 198 191 185 185 223 210 209 206 201 192 200 200 188 185 182 179 175 160 139 139 146 149 148 143 127 98 75 78 81 89 90 88 85 81 66 50 54 67 66
219 218 211 207 203 197 192 187 190 222 168 198 198 192 190 183 178 176 172 164 163 153 143 158 165 164 158 152 144 132 121 100 91 94 95 92 91 85 80 67 60 62 55
228 224 215 209 208 205 202 198 191 187 191 207 212 199 191 184 178 173 164 145 149 157 163 168 169 165 157 152 146 135 123 106 96 95 93 89 89 90 84 73 64 66 57
234 228 221 214 210 209 202 196 193 192 189 181 171 189 189 179 172 171 162 161 169 173 171 167 165 160 156 151 146 139 133 125 116 109 102 97 96 97 95 89 79 58 56
240 240 229 217 210 207 201 197 195 193 190 187 189 185 168 155 167 176 178 173 171 172 171 168 165 160 156 152 147 141 134 129 125 118 115 110 105 105 111 106 98 81 46
247 240 232 226 214 210 205 203 199 195 193 194 196 188 176 178 182 182 183 182 179 176 172 168 165 162 158 152 149 146 143 142 141 138 132 130 126 124 128 127 119 95 23
248 240 231 227 220 213 210 207 201 197 195 192 185 182 181 176 179 180 182 183 180 175 168 162 163 165 164 161 157 153 151 151 150 146 141 140 139 138 133 124 103 43 10
246 242 238 235 225 215 209 203 200 197 193 189 182 178 181 183 182 181 181 178 171 166 161 158 158 158 155 153 154 156 160 165 165 158 151 147 144 145 143 142 146 203 304
246 240 235 231 224 214 207 202 199 195 189 185 183 183 183 182 180 179 177 172 167 164 161 160 162 163 158 152 150 153 156 158 157 155 153 154 155 154 151 158 204 254 285
252 241 235 228 220 214 209 203 196 192 189 185 183 180 178 178 177 176 173 170 166 165 164 160 157 158 160 158 158 159 160 158 156 155 152 148 158 166 174 193 235 271 285
254 245 237 231 223 213 206 200 196 191 189 187 183 180 179 179 178 175 171 167 165 163 161 158 158 157 159 162 163 161 160 159 158 157 155 151 161 178 185 206 238 262 278
Height
1492 1492 1493 1493 1493 1493 1492 1492 1491 1490 1489 1488 1487 1486 1484 1483 1482 1481 1481 1481 1481 1481 1481 1481 1482 1482 1483 1484 1485 1486 1486 1488 1488 1489 1490 1491 1491 1492 1494 1495 1495 1497 1498
1490 1490 1491 1491 1491 1491 1491 1490 1490 1489 1488 1487 1486 1485 1484 1483 1482 1481 1481 1480 1480 1480 1480 1480 1480 1481 1481 1482 1483 1484 1485 1486 1487 1487 1488 1489 1490 1491 1492 1493 1494 1495 1496
1488 1488 1489 1489 1489 1489 1489 1489 1489 1488 1488 1487 1486 1485 1484 1483 1482 1481 1481 1480 1480 1479 1479 1479 1479 1480 1480 1481 1482 1483 1483 1484 1485 1486 1486 1487 1488 1489 1490 1491 1492 1493 1494
1485 1486 1486 1487 1487 1487 1488 1487 1487 1487 1486 1486 1485 1484 1483 1482 1482 1481 1480 1480 1479 1479 1479 1479 1479 1479 1479 1480 1481 1481 1482 1483 1483 1484 1485 1486 1487 1487 1488 1489 1490 1490 1491
1482 1483 1484 1485 1485 1485 1486 1486 1486 1485 1485 1485 1484 1483 1483 1482 1481 1481 1480 1480 1479 1479 1478 1478 1478 1478 1479 1479 1480 1480 1481 1481 1482 1482 1483 1484 1485 1485 1486 1487 1487 1488 1489
1479 1480 1481 1482 1483 1483 1483 1484 1484 1484 1483 1483 1483 1482 1482 1481 1481 1480 1480 1479 1479 1478 1478 1478 1478 1478 1478 1478 1479 1479 1479 1480 1480 1481 1481 1482 1483 1484 1484 1485 1485 1486 1486
1476 1477 1478 1479 1480 1480 1481 1481 1482 1482 1482 1481 1481 1481 1480 1480 1480 1480 1479 1479 1478 1478 1477 1477 1477 1477 1477 1477 1478 1478 1478 1478 1479 1480 1480 1480 1481 1482 1482 1482 1483 1483 1484
1472 1473 1475 1476 1477 1477 1478 1478 1479 1479 1479 1479 1479 1479 1479 1479 1479 1478 1478 1478 1477 1477 1477 1476 1476 1476 1476 1476 1476 1476 1477 1477 1477 1478 1479 1479 1479 1480 1480 1481 1481 1481 1482
1468 1469 1471 1472 1473 1474 1475 1475 1476 1477 1477 1477 1477 1477 1477 1477 1477 1477 1477 1476 1476 1476 1475 1475 1475 1475 1475 1475 1475 1475 1475 1475 1476 1476 1477 1477 1477 1478 1478 1478 1478 1479 1479
1464 1465 1467 1468 1469 1470 1471 1472 1473 1473 1474 1474 1474 1475 1475 1475 1475 1475 1475 1475 1474 1474 1474 1474 1473 1473 1473 1474 1474 1474 1474 1474 1474 1475 1475 1475 1476 1476 1476 1476 1476 1477 1477
1460 1461 1462 1463 1465 1466 1467 1468 1469 1470 1471 1471 1471 1472 1472 1472 1472 1473 1473 1473 1472 1472 1472 1472 1472 1472 1472 1472 1472 1472 1472 1472 1473 1473 1473 1474 1474 1474 1474 1474 1474 1475 1475
1456 1457 1458 1459 1460 1461 1463 1464 1465 1466 1467 1467 1468 1468 1469 1469 1470 1470 1470 1470 1470 1470 1470 1471 1471 1471 1470 1471 1471 1471 1471 1471 1471 1471 1472 1472 1472 1473 1473 1472 1473 1473 1473
1452 1452 1453 1454 1455 1457 1458 1459 1460 1462 1462 1463 1464 1464 1465 1466 1466 1467 1467 1468 1468 1468 1468 1469 1469 1469 1469 1469 1469 1469 1469 1469 1469 1470 1470 1470 1471 1471 1471 1471 1470 1470 1470
1446 1447 1448 1449 1450 1451 1453 1454 1455 1456 1457 1458 1459 1460 1461 1462 1462 1463 1464 1465 1465 1465 1466 1466 1467 1467 1467 1467 1467 1467 1467 1467 1468 1468 1468 1468 1468 1468 1468 1468 1468 1468 1468
1442 1442 1442 1443 1444 1446 1447 1448 1449 1451 1452 1453 1454 1456 1457 1457 1458 1460 1460 1461 1462 1462 1463 1463 1464 1464 1464 1464 1464 1465 1465 1465 1465 1466 1466 1466 1466 1466 1466 1466 1466 1466 1465
1437 1437 1437 1437 1438 1440 1441 1442 1443 1445 1447 1448 1450 1451 1452 1454 1455 1456 1456 1457 1458 1459 1459 1459 1460 1460 1461 1461 1462 1462 1462 1463 1463 1463 1463 1464 1464 1464 1464 1464 1463 1463 1463
1431 1431 1431 1431 1432 1433 1434 1435 1437 1439 1440 1442 1443 1445 1447 1449 1450 1451 1452 1453 1454 1455 1455 1455 1456 1457 1458 1458 1459 1459 1460 1460 1460 1461 1461 1461 1461 1461 1461 1461 1461 1460 1460
1425 1425 1425 1425 1426 1426 1427 1429 1430 1432 1433 1435 1437 1439 1441 1443 1445 1446 1448 1449 1449 1450 1451 1452 1453 1454 1455 1455 1456 1457 1457 1458 1458 1458 1458 1458 1458 1458 1458 1458 1458 1457 1457
1418 1418 1418 1418 1419 1420 1421 1422 1423 1425 1427 1429 1431 1433 1435 1437 1439 1441 1442 1443 1444 1445 1447 1448 1449 1451 1452 1453 1453 1454 1455 1455 1456 1456 1456 1456 1456 1456 1456 1455 1455 1455 1454
1411 1411 1411 1411 1411 1412 1413 1414 1416 1417 1419 1422 1424 1426 1429 1431 1432 1434 1436 1438 1440 1441 1443 1444 1446 1447 1448 1449 1450 1451 1452 1452 1453 1453 1453 1453 1453 1453 1453 1452 1452 1452 1451
1404 1403 1404 1404 1404 1405 1405 1406 1408 1410 1412 1414 1417 1420 1423 1425 1426 1428 1430 1432 1434 1436 1438 1440 1442 1443 1444 1446 1447 1448 1449 1449 1450 1450 1450 1450 1450 1450 1450 1449 1449 1448 1448
1397 1396 1396 1396 1396 1397 1398 1399 1401 1403 1405 1407 1410 1414 1416 1419 1421 1423 1425 1428 1430 1432 1434 1436 1437 1439 1441 1442 1443 1444 1445 1446 1446 1447 1447 1447 1447 1447 1447 1446 1446 1445 1444
1390 1389 1388 1388 1389 1390 1391 1392 1394 1396 1398 1401 1404 1406 1409 1412 1415 1417 1420 1422 1425 1427 1429 1431 1433 1435 1437 1438 1440 1441 1441 1442 1443 1443 1443 1444 1444 1443 1443 1442 1442 1441 1441
1382 1382 1381 1381 1382 1382 1383 1385 1387 1389 1391 1394 1397 1400 1403 1406 1409 1412 1414 1417 1420 1422 1424 1427 1429 1431 1432 1434 1435 1436 1437 1438 1439 1439 1440 1440 1440 1439 1439 1439 1438 1438 1437
1375 1375 1374 1374 1374 1375 1376 1378 1380 1382 1384 1387 1390 1393 1397 1400 1403 1406 1409 1412 1415 1417 1420 1422 1425 1427 1428 1430 1431 1432 1433 1434 1435 1435 1435 1436 1435 1435 1435 1434 1434 1433 1433
1369 1368 1368 1368 1368 1368 1370 1371 1373 1375 1378 1380 1383 1387 1390 1393 1397 1400 1403 1407 1410 1413 1415 1418 1420 1422 1424 1425 1427 1428 1429 1430 1430 1431 1431 1431 1431 1431 1430 1430 1430 1429 1429